GW0378 Weather Reports


Display with metric or nautical units.
time (UTC)temp
F
wind
direction
speed
MPH
gust
MPH
rain 1hr
in
rain 24hr
in
rain mn
in
humidity
%
barometer
mb
20220810025754 85 90 0.0 2.0 0.00 0.00 0.00 26 1014.6
20220810025254 86 106 1.0 2.0 0.00 0.00 0.00 24 1014.4
20220810024753 87 32 0.0 0.0 0.00 0.00 0.00 23 1014.4
20220810024251 88 352 1.0 3.0 0.00 0.00 0.00 22 1014.5
20220810023750 88 190 0.0 5.0 0.00 0.00 0.00 22 1014.7
20220810023249 88 192 2.0 4.0 0.00 0.00 0.00 23 1014.5
20220810022748 88 243 2.0 4.0 0.00 0.00 0.00 22 1014.2
20220810022247 87 199 0.0 4.0 0.00 0.00 0.00 24 1014.4
20220810021746 88 82 0.0 1.0 0.00 0.00 0.00 23 1014.2
20220810021246 89 195 0.0 3.0 0.00 0.00 0.00 23 1013.9
20220810020745 89 231 3.0 7.0 0.00 0.00 0.00 23 1013.9
20220810020243 88 234 4.0 6.0 0.00 0.00 0.00 23 1013.8
20220810015741 89 206 0.0 2.0 0.00 0.00 0.00 24 1013.9
20220810015240 90 288 2.0 3.0 0.00 0.00 0.00 22 1013.9
20220810014739 89 286 0.0 3.0 0.00 0.00 0.00 22 1013.7
20220810014239 89 151 0.0 1.0 0.00 0.00 0.00 24 1013.7
20220810013738 90 180 0.0 2.0 0.00 0.00 0.00 24 1013.7
20220810013235 90 251 2.0 2.0 0.00 0.00 0.00 23 1013.8
20220810012734 90 209 1.0 2.0 0.00 0.00 0.00 23 1013.8
20220810012232 91 262 0.0 1.0 0.00 0.00 0.00 23 1013.7
20220810011731 92 258 2.0 2.0 0.00 0.00 0.00 21 1013.7
20220810011230 91 169 0.0 0.0 0.00 0.00 0.00 23 1013.8
20220810010728 92 169 0.0 3.0 0.00 0.00 0.00 21 1013.5
20220810010228 92 286 0.0 1.0 0.00 0.00 0.00 23 1013.8
20220810005728 93 270 0.0 1.0 0.00 0.00 0.00 23 1013.8
20220810005227 93 243 1.0 3.0 0.00 0.00 0.00 22 1013.7
20220810004727 95 278 0.0 1.0 0.00 0.00 0.00 21 1013.7
20220810004226 95 295 2.0 4.0 0.00 0.00 0.00 17 1013.7
20220810003725 96 297 2.0 4.0 0.00 0.00 0.00 17 1013.8
20220810003223 97 23 1.0 5.0 0.00 0.00 0.00 17 1013.9
20220810002722 97 295 3.0 4.0 0.00 0.00 0.00 18 1013.9
20220810002222 96 307 0.0 5.0 0.00 0.00 0.00 17 1013.8
20220810001721 97 265 2.0 5.0 0.00 0.00 0.00 16 1013.9
20220810001221 96 327 3.0 3.0 0.00 0.00 0.00 16 1014.0
20220810000719 96 320 2.0 3.0 0.00 0.00 0.00 15 1013.9
20220810000218 97 276 2.0 3.0 0.00 0.00 0.00 17 1014.0
20220809235716 98 270 2.0 4.0 0.00 0.00 0.00 15 1014.0
20220809235215 98 275 2.0 4.0 0.00 0.00 0.00 14 1014.2
20220809234714 97 267 3.0 4.0 0.00 0.00 0.00 17 1013.9
20220809234214 97 251 2.0 3.0 0.00 0.00 0.00 14 1013.9
20220809233713 98 270 5.0 5.0 0.00 0.00 0.00 16 1013.9
20220809233211 98 270 3.0 5.0 0.00 0.00 0.00 14 1014.4
20220809232710 98 303 2.0 4.0 0.00 0.00 0.00 14 1014.1
20220809232210 99 344 2.0 5.0 0.00 0.00 0.00 14 1014.2
20220809231709 101 307 0.0 5.0 0.00 0.00 0.00 15 1014.1
20220809231208 99 328 2.0 4.0 0.00 0.00 0.00 16 1014.4
20220809230706 100 352 3.0 5.0 0.00 0.00 0.00 13 1014.7
20220809230205 100 274 3.0 4.0 0.00 0.00 0.00 15 1014.4
20220809225702 98 297 2.0 3.0 0.00 0.00 0.00 14 1014.6
20220809225201 98 293 6.0 7.0 0.00 0.00 0.00 13 1014.5
20220809224701 99 241 5.0 6.0 0.00 0.00 0.00 13 1014.6
20220809224159 99 304 2.0 7.0 0.00 0.00 0.00 14 1014.8
20220809223659 98 282 2.0 5.0 0.00 0.00 0.00 14 1014.9
20220809223158 97 289 3.0 5.0 0.00 0.00 0.00 15 1014.9
20220809222656 98 273 4.0 8.0 0.00 0.00 0.00 16 1014.9
20220809222155 98 286 6.0 7.0 0.00 0.00 0.00 16 1014.7
20220809221653 98 248 3.0 7.0 0.00 0.00 0.00 16 1014.9
20220809221153 98 310 4.0 10.0 0.00 0.00 0.00 15 1015.1
20220809220651 98 314 4.0 6.0 0.00 0.00 0.00 16 1014.9
20220809220151 98 302 3.0 5.0 0.00 0.00 0.00 19 1015.0
20220809215650 97 293 3.0 6.0 0.00 0.00 0.00 17 1015.4
20220809215149 97 317 5.0 7.0 0.00 0.00 0.00 17 1015.2
20220809214648 97 264 4.0 6.0 0.00 0.00 0.00 18 1015.2
20220809214147 97 265 4.0 7.0 0.00 0.00 0.00 17 1015.5
20220809213646 96 265 5.0 7.0 0.00 0.00 0.00 19 1015.7
20220809213145 96 320 3.0 5.0 0.00 0.00 0.00 19 1015.8
20220809212644 95 257 2.0 8.0 0.00 0.00 0.00 19 1015.8
20220809212143 96 306 3.0 3.0 0.00 0.00 0.00 17 1015.9
20220809211641 94 251 2.0 5.0 0.00 0.00 0.00 18 1015.9
20220809211139 94 298 6.0 7.0 0.00 0.00 0.00 19 1015.8
20220809210638 94 341 5.0 6.0 0.00 0.00 0.00 23 1016.2
20220809210137 93 253 6.0 9.0 0.00 0.00 0.00 19 1016.0
20220809205637 93 287 4.0 6.0 0.00 0.00 0.00 22 1016.1
20220809205135 92 260 8.0 8.0 0.00 0.00 0.00 19 1016.4
20220809204634 93 270 2.0 8.0 0.00 0.00 0.00 20 1016.5
20220809204133 93 332 3.0 6.0 0.00 0.00 0.00 19 1016.5
20220809203632 93 298 5.0 6.0 0.00 0.00 0.00 20 1016.5
20220809203132 92 281 5.0 7.0 0.00 0.00 0.00 22 1016.7
20220809202631 91 225 3.0 5.0 0.00 0.00 0.00 19 1016.8
20220809202130 91 299 4.0 6.0 0.00 0.00 0.00 23 1016.7
20220809201628 91 285 4.0 7.0 0.00 0.00 0.00 24 1016.9
20220809201126 90 334 4.0 6.0 0.00 0.00 0.00 20 1017.0
20220809200626 90 278 4.0 5.0 0.00 0.00 0.00 21 1017.0
20220809200124 89 270 3.0 6.0 0.00 0.00 0.00 21 1017.1
20220809195622 89 277 1.0 5.0 0.00 0.00 0.00 22 1017.2
20220809195121 88 299 5.0 7.0 0.00 0.00 0.00 23 1017.2
20220809194620 88 270 1.0 3.0 0.00 0.00 0.00 21 1017.2
20220809194119 87 273 3.0 5.0 0.00 0.00 0.00 21 1017.5
20220809193618 88 277 5.0 6.0 0.00 0.00 0.00 21 1017.4
20220809193117 87 286 5.0 7.0 0.00 0.00 0.00 23 1017.7
20220809192616 86 299 2.0 8.0 0.00 0.00 0.00 25 1017.5
20220809192115 86 251 3.0 6.0 0.00 0.00 0.00 22 1017.7
20220809191613 86 281 4.0 6.0 0.00 0.00 0.00 24 1017.8
20220809191113 86 343 5.0 6.0 0.00 0.00 0.00 28 1017.9
20220809190612 85 270 5.0 6.0 0.00 0.00 0.00 23 1018.1
20220809190110 84 285 4.0 6.0 0.00 0.00 0.00 26 1018.1
20220809185609 84 320 3.0 4.0 0.00 0.00 0.00 25 1018.0
20220809185108 83 295 4.0 5.0 0.00 0.00 0.00 25 1018.3
20220809184606 82 18 1.0 7.0 0.00 0.00 0.00 24 1018.5
20220809184105 82 296 5.0 7.0 0.00 0.00 0.00 24 1018.3
20220809183604 82 270 3.0 5.0 0.00 0.00 0.00 24 1018.6
20220809183103 82 270 1.0 5.0 0.00 0.00 0.00 24 1018.6
20220809182602 81 297 1.0 4.0 0.00 0.00 0.00 24 1018.7
20220809182101 80 300 3.0 4.0 0.00 0.00 0.00 23 1018.7
20220809181600 80 270 2.0 6.0 0.00 0.00 0.00 25 1018.6
20220809181059 80 239 2.0 4.0 0.00 0.00 0.00 26 1018.8
20220809180558 79 275 2.0 5.0 0.00 0.00 0.00 26 1018.8
20220809180057 78 334 3.0 4.0 0.00 0.00 0.00 27 1019.2
20220809175556 78 344 5.0 5.0 0.00 0.00 0.00 26 1019.1
20220809175055 79 279 1.0 3.0 0.00 0.00 0.00 25 1019.1
20220809174553 78 278 5.0 5.0 0.00 0.00 0.00 27 1019.3
20220809174053 78 270 0.0 4.0 0.00 0.00 0.00 27 1019.1
20220809173552 78 270 0.0 6.0 0.00 0.00 0.00 28 1019.5
20220809173051 77 90 0.0 3.0 0.00 0.00 0.00 27 1019.2
20220809172549 76 270 0.0 3.0 0.00 0.00 0.00 34 1019.2
20220809172049 76 304 3.0 4.0 0.00 0.00 0.00 30 1019.7
20220809171549 76 228 2.0 5.0 0.00 0.00 0.00 29 1019.7
20220809171048 75 221 2.0 4.0 0.00 0.00 0.00 29 1019.6
20220809170547 75 162 1.0 4.0 0.00 0.00 0.00 30 1019.7
20220809170046 74 192 0.0 2.0 0.00 0.00 0.00 30 1019.7
20220809165545 74 290 0.0 3.0 0.00 0.00 0.00 31 1019.7
20220809165043 74 252 3.0 3.0 0.00 0.00 0.00 31 1019.7
20220809164541 74 352 0.0 3.0 0.00 0.00 0.00 32 1019.7
20220809164040 73 247 0.0 2.0 0.00 0.00 0.00 31 1019.8
20220809163540 72 337 1.0 3.0 0.00 0.00 0.00 32 1019.9
20220809163038 73 8 0.0 2.0 0.00 0.00 0.00 35 1019.9
20220809162537 71 254 1.0 2.0 0.00 0.00 0.00 33 1020.0
20220809162036 71 278 0.0 3.0 0.00 0.00 0.00 35 1020.0
20220809161535 70 257 2.0 3.0 0.00 0.00 0.00 36 1020.2
20220809161034 69 0 0.0 2.0 0.00 0.00 0.00 38 1020.0
20220809160533 69 354 0.0 3.0 0.00 0.00 0.00 38 1020.2
20220809160033 69 299 3.0 3.0 0.00 0.00 0.00 40 1020.5
20220809155531 68 303 3.0 3.0 0.00 0.00 0.00 40 1020.1
20220809155030 68 293 3.0 4.0 0.00 0.00 0.00 40 1020.3
20220809154528 68 275 2.0 3.0 0.00 0.00 0.00 40 1020.3
20220809154029 67 290 2.0 4.0 0.00 0.00 0.00 41 1020.3
20220809153528 67 304 2.0 4.0 0.00 0.00 0.00 40 1020.2
20220809153027 66 270 0.0 4.0 0.00 0.00 0.00 42 1020.5
20220809152527 66 297 2.0 4.0 0.00 0.00 0.00 42 1020.2
20220809152026 66 263 1.0 3.0 0.00 0.00 0.00 41 1020.3
20220809151524 66 274 3.0 3.0 0.00 0.00 0.00 41 1020.6
20220809151023 65 216 2.0 3.0 0.00 0.00 0.00 42 1020.5
20220809150522 64 257 1.0 3.0 0.00 0.00 0.00 42 1020.5
20220809150021 64 252 2.0 3.0 0.00 0.00 0.00 43 1020.5
20220809145520 64 295 2.0 3.0 0.00 0.00 0.00 43 1020.3
20220809145019 63 311 2.0 3.0 0.00 0.00 0.00 45 1020.3
20220809144517 64 300 2.0 2.0 0.00 0.00 0.00 46 1020.6
20220809144017 64 306 0.0 2.0 0.00 0.00 0.00 43 1020.5
20220809143515 62 345 0.0 2.0 0.00 0.00 0.00 44 1020.6
20220809143015 62 296 3.0 3.0 0.00 0.00 0.00 45 1020.3
20220809142514 62 274 2.0 2.0 0.00 0.00 0.00 45 1020.5
20220809142013 61 294 0.0 1.0 0.00 0.00 0.00 45 1020.2
20220809141513 60 321 0.0 2.0 0.00 0.00 0.00 47 1020.2
20220809141011 59 20 1.0 2.0 0.00 0.00 0.00 49 1020.5
20220809140510 58 173 0.0 1.0 0.00 0.00 0.00 51 1020.2
20220809140009 58 0 0.0 2.0 0.00 0.00 0.00 49 1020.3
20220809135508 59 5 3.0 3.0 0.00 0.00 0.00 48 1020.2
20220809135007 58 21 3.0 3.0 0.00 0.00 0.00 47 1020.3
20220809134506 59 103 2.0 5.0 0.00 0.00 0.00 45 1020.1
20220809134004 59 99 2.0 4.0 0.00 0.00 0.00 44 1020.2
20220809133503 58 66 0.0 4.0 0.00 0.00 0.00 45 1020.2
20220809133002 57 53 2.0 3.0 0.00 0.00 0.00 48 1020.3
20220809132501 56 93 3.0 5.0 0.00 0.00 0.00 56 1020.3
20220809132000 56 90 0.0 2.0 0.00 0.00 0.00 50 1020.1
20220809131500 56 90 0.0 2.0 0.00 0.00 0.00 51 1020.1
20220809130959 56 106 0.0 3.0 0.00 0.00 0.00 49 1020.0
20220809130458 55 101 2.0 2.0 0.00 0.00 0.00 50 1020.3
20220809125956 56 90 2.0 2.0 0.00 0.00 0.00 50 1020.2
20220809125455 56 110 4.0 5.0 0.00 0.00 0.00 48 1019.8
20220809124954 56 93 3.0 4.0 0.00 0.00 0.00 53 1020.0
20220809124454 56 95 4.0 4.0 0.00 0.00 0.00 51 1020.1
20220809123952 57 120 2.0 2.0 0.00 0.00 0.00 47 1019.8
20220809123452 58 128 2.0 2.0 0.00 0.00 0.00 45 1019.7
20220809122951 58 117 2.0 3.0 0.00 0.00 0.00 46 1019.7
20220809122450 57 151 1.0 2.0 0.00 0.00 0.00 48 1019.8
20220809121949 59 114 2.0 4.0 0.00 0.00 0.00 44 1019.8
20220809121448 58 96 5.0 5.0 0.00 0.00 0.00 43 1019.6
20220809120946 57 116 3.0 3.0 0.00 0.00 0.00 48 1019.7
20220809120446 58 98 3.0 4.0 0.00 0.00 0.00 43 1019.8
20220809115946 58 90 3.0 3.0 0.00 0.00 0.00 43 1019.5
20220809115445 56 117 3.0 3.0 0.00 0.00 0.00 47 1019.5
20220809114945 57 117 2.0 4.0 0.00 0.00 0.00 47 1019.5
20220809114445 56 113 3.0 4.0 0.00 0.00 0.00 47 1019.5
20220809113945 57 99 0.0 2.0 0.00 0.00 0.00 44 1019.5
20220809113443 57 94 3.0 3.0 0.00 0.00 0.00 44 1019.6
20220809112942 58 68 2.0 2.0 0.00 0.00 0.00 42 1019.2
20220809112442 59 90 0.0 3.0 0.00 0.00 0.00 41 1019.6
20220809111941 59 72 2.0 3.0 0.00 0.00 0.00 40 1019.3
20220809111440 59 120 0.0 3.0 0.00 0.00 0.00 40 1019.2
20220809110939 59 113 3.0 4.0 0.00 0.00 0.00 40 1019.3
20220809110439 60 138 3.0 5.0 0.00 0.00 0.00 40 1019.3
20220809105938 59 108 3.0 5.0 0.00 0.00 0.00 40 1019.2
20220809105437 59 96 2.0 2.0 0.00 0.00 0.00 40 1019.1
20220809104936 58 113 3.0 4.0 0.00 0.00 0.00 42 1019.1
20220809104435 56 106 3.0 5.0 0.00 0.00 0.00 46 1019.1
20220809103935 57 106 3.0 5.0 0.00 0.00 0.00 44 1019.0
20220809103433 57 101 4.0 4.0 0.00 0.00 0.00 45 1019.0
20220809102932 58 105 3.0 3.0 0.00 0.00 0.00 45 1018.8
20220809102431 59 96 1.0 2.0 0.00 0.00 0.00 42 1019.0
20220809101930 59 94 3.0 3.0 0.00 0.00 0.00 43 1018.9
20220809101428 59 101 3.0 4.0 0.00 0.00 0.00 44 1018.9
20220809100928 59 106 3.0 4.0 0.00 0.00 0.00 44 1018.8
20220809100428 59 125 2.0 3.0 0.00 0.00 0.00 43 1018.9
20220809095927 60 90 0.0 2.0 0.00 0.00 0.00 38 1018.9
20220809095426 61 90 1.0 2.0 0.00 0.00 0.00 37 1018.7
20220809094926 60 140 2.0 2.0 0.00 0.00 0.00 37 1018.7
20220809094424 60 188 0.0 3.0 0.00 0.00 0.00 40 1018.5
20220809093923 61 80 3.0 4.0 0.00 0.00 0.00 38 1018.6
20220809093422 62 84 3.0 4.0 0.00 0.00 0.00 37 1018.2
20220809092921 63 74 3.0 5.0 0.00 0.00 0.00 35 1018.3
20220809092420 62 101 6.0 6.0 0.00 0.00 0.00 35 1018.3
20220809091918 61 105 4.0 5.0 0.00 0.00 0.00 38 1018.3
20220809091417 60 95 3.0 4.0 0.00 0.00 0.00 39 1018.6
20220809090917 61 106 4.0 4.0 0.00 0.00 0.00 38 1018.3
20220809090416 61 103 3.0 3.0 0.00 0.00 0.00 40 1018.3
20220809085914 62 96 3.0 3.0 0.00 0.00 0.00 39 1018.2
20220809085414 62 101 3.0 4.0 0.00 0.00 0.00 37 1018.1
20220809084914 63 102 2.0 3.0 0.00 0.00 0.00 37 1018.6
20220809084413 63 114 0.0 2.0 0.00 0.00 0.00 37 1018.1
20220809083914 63 117 2.0 2.0 0.00 0.00 0.00 38 1018.2
20220809083412 64 126 0.0 2.0 0.00 0.00 0.00 36 1017.9
20220809082911 64 165 0.0 2.0 0.00 0.00 0.00 35 1018.2
20220809082410 63 173 1.0 2.0 0.00 0.00 0.00 36 1018.1
20220809081908 63 140 2.0 3.0 0.00 0.00 0.00 34 1018.1
20220809081406 65 90 3.0 3.0 0.00 0.00 0.00 33 1018.0
20220809080906 64 157 2.0 3.0 0.00 0.00 0.00 34 1018.1
20220809080406 64 113 2.0 3.0 0.00 0.00 0.00 32 1018.2
20220809075905 64 114 3.0 3.0 0.00 0.00 0.00 33 1018.2
20220809075404 65 90 2.0 3.0 0.00 0.00 0.00 33 1017.8
20220809074903 64 105 2.0 3.0 0.00 0.00 0.00 33 1018.1
20220809074402 64 117 3.0 3.0 0.00 0.00 0.00 35 1018.1
20220809073901 64 122 3.0 3.0 0.00 0.00 0.00 36 1017.9
20220809073400 65 117 2.0 3.0 0.00 0.00 0.00 34 1018.1
20220809072859 66 114 2.0 3.0 0.00 0.00 0.00 32 1018.0
20220809072358 65 114 3.0 5.0 0.00 0.00 0.00 33 1018.1
20220809071857 66 111 1.0 4.0 0.00 0.00 0.00 32 1018.0
20220809071357 65 105 3.0 3.0 0.00 0.00 0.00 32 1017.9
20220809070856 65 123 2.0 3.0 0.00 0.00 0.00 34 1018.0
20220809070355 65 114 0.0 1.0 0.00 0.00 0.00 34 1017.9
20220809065854 66 105 0.0 2.0 0.00 0.00 0.00 31 1017.9
20220809065354 66 96 2.0 2.0 0.00 0.00 0.00 32 1017.8
20220809064853 67 102 2.0 3.0 0.00 0.00 0.00 32 1017.8
20220809064352 68 127 0.0 2.0 0.00 0.00 0.00 31 1017.7
20220809063851 68 121 2.0 3.0 0.00 0.00 0.00 30 1017.7
20220809063349 69 270 0.0 2.0 0.00 0.00 0.00 28 1017.5
20220809062849 69 187 1.0 2.0 0.00 0.00 0.00 30 1017.6
20220809062348 70 162 1.0 4.0 0.00 0.00 0.00 28 1017.7
20220809061847 70 125 4.0 5.0 0.00 0.00 0.00 27 1017.6
20220809061346 71 168 4.0 7.0 0.00 0.00 0.00 27 1017.2
20220809060844 70 97 0.0 5.0 0.00 0.00 0.00 27 1017.4
20220809060343 71 107 3.0 4.0 0.00 0.00 0.00 27 1017.2
20220809055842 73 112 3.0 5.0 0.00 0.00 0.00 25 1017.4
20220809055342 73 105 5.0 7.0 0.00 0.00 0.00 24 1017.1
20220809054840 74 77 1.0 13.0 0.00 0.00 0.00 24 1017.0
20220809054339 73 108 7.0 7.0 0.00 0.00 0.00 24 1017.2
20220809053838 73 105 5.0 6.0 0.00 0.00 0.00 25 1017.0
20220809053337 72 124 3.0 6.0 0.00 0.00 0.00 26 1017.0
20220809052836 71 119 3.0 5.0 0.00 0.00 0.00 26 1016.9
20220809052335 71 90 3.0 5.0 0.00 0.00 0.00 27 1016.9
20220809051834 71 156 2.0 5.0 0.00 0.00 0.00 27 1016.9
20220809051334 71 97 4.0 5.0 0.00 0.00 0.00 27 1017.1
20220809050833 72 90 3.0 6.0 0.00 0.00 0.00 26 1017.2
20220809050333 72 103 4.0 5.0 0.00 0.00 0.00 25 1016.9
20220809045832 74 77 2.0 4.0 0.00 0.00 0.00 24 1016.7
20220809045332 76 107 4.0 5.0 0.00 0.00 0.00 22 1016.7
20220809044830 76 109 4.0 5.0 0.00 0.00 0.00 22 1016.9
20220809044330 77 77 2.0 5.0 0.00 0.00 0.00 22 1017.1
20220809043829 77 69 1.0 6.0 0.00 0.00 0.00 22 1016.9
20220809043328 75 112 2.0 6.0 0.00 0.00 0.00 24 1016.8
20220809042826 77 105 4.0 5.0 0.00 0.00 0.00 21 1016.7
20220809042325 78 97 3.0 6.0 0.00 0.00 0.00 22 1016.7
20220809041823 78 110 4.0 6.0 0.00 0.00 0.00 21 1016.5
20220809041323 77 105 5.0 5.0 0.00 0.00 0.00 22 1016.6
20220809040822 77 86 3.0 3.0 0.00 0.00 0.00 23 1016.6
20220809040320 78 101 3.0 4.0 0.00 0.00 0.00 21 1016.2
20220809035819 80 131 2.0 3.0 0.00 0.00 0.00 20 1016.4
20220809035319 81 114 1.0 2.0 0.00 0.00 0.00 19 1016.1
20220809034818 82 90 0.0 2.0 0.00 0.00 0.00 18 1015.9
20220809034318 82 212 2.0 3.0 0.00 0.00 0.00 19 1016.2
20220809033817 82 160 0.0 2.0 0.00 0.00 0.00 21 1016.1
20220809033317 81 74 1.0 2.0 0.00 0.00 0.00 21 1015.9
20220809032815 81 54 0.0 2.0 0.00 0.00 0.00 20 1015.7
20220809032315 82 180 0.0 0.0 0.00 0.00 0.00 20 1015.7
20220809031813 82 225 0.0 2.0 0.00 0.00 0.00 20 1015.7
20220809031312 83 270 0.0 3.0 0.00 0.00 0.00 19 1015.5
20220809030812 83 187 3.0 4.0 0.00 0.00 0.00 18 1015.6
20220809030311 84 196 3.0 4.0 0.00 0.00 0.00 18 1015.5